Regional Weather Roundup
Issued by NWS

Home | Current Version | Previous Version | Graphics & Text | Print | Product List | Glossary Off
Versions: 1 2 3 4 5 6 7 8 9 10 11 12 13 14 15 16 17 18 19 20 21 22 23 24 25 26 27 28 29 30 31 32 33 34 35 36 37 38 39 40 41 42 43 44 45 46 47 48 49 50

780
ASUS43 KLSX 220907
RWRMO

WEATHER SUMMARY FOR MISSOURI
NATIONAL WEATHER SERVICE SPRINGFIELD MO
300 AM CST WED NOV 22 2017

NOTE: "FAIR" INDICATES FEW OR NO CLOUDS BELOW 12,000 FEET WITH NO
       SIGNIFICANT WEATHER AND/OR OBSTRUCTIONS TO VISIBILITY.
       CURRENT SKY AND/OR WEATHER CONDITIONS ARE NOT AVAILABLE FOR
       CHILLICOTHE AND FARMINGTON.

MOZ001>031-035>038-043-044-053-054-221000-
...NORTHERN AND WESTERN MISSOURI...

CITY           SKY/WX    TMP DP  RH WIND       PRES   REMARKS
KANSAS CTY INT CLOUDY    21  13  71 N6        30.41S WCI  13
KANSAS C DTWN  CLOUDY    26  13  57 NW7       30.44R WCI  18
LEE`S SUMMIT   PTCLDY    25  14  63 N9        30.42R WCI  15
ST JOSEPH      PTCLDY    21  11  65 N3        30.43S
CHILLICOTHE      N/A     23  14  68 CALM      30.42F
KIRKSVILLE     CLOUDY    21  15  78 NW3       30.40R

$$
MOZ066>068-077>081-088>096-101>105-221000-
...SOUTHWEST MISSOURI...

CITY           SKY/WX    TMP DP  RH WIND       PRES   REMARKS
SPRINGFIELD    PTCLDY    26  19  74 N8        30.35R WCI  18
JOPLIN         CLOUDY    24  19  81 N7        30.41R WCI  16

$$
MOZ032>034-039>042-045>050-055>058-069>072-221000-
...CENTRAL MISSOURI...

CITY           SKY/WX    TMP DP  RH WIND       PRES   REMARKS
COLUMBIA       CLOUDY    25  17  72 N10       30.37R WCI  15
JEFFERSON CITY CLOUDY    28  17  63 NW7       30.39R WCI  21
ROLLA          PTCLDY    26  18  71 N9        30.34R WCI  17
SEDALIA        PTCLDY    26  20  77 NW14      30.41R WCI  14
WHITEMAN AFB   CLEAR     24  15  67 N10       30.37R WCI  14
WARRENSBURG    CLOUDY    25  18  74 NW7       30.42R WCI  17
OSAGE BEACH    PTCLDY    27  18  69 N6        30.39R WCI  20

$$
MOZ051-052-059>065-221000-
...EAST CENTRAL MISSOURI...

CITY           SKY/WX    TMP DP  RH WIND       PRES   REMARKS
ST LOUIS INTL  CLOUDY    27  20  75 NW7       30.35R WCI  19
SPIRIT OF STL  CLOUDY    27  19  72 NW7       30.36R WCI  19
ST CHARLES     CLOUDY    28  18  66 NW9       30.35R WCI  19

$$
MOZ072>076-082>087-097>100-106>115-221000-
...SOUTH CENTRAL AND SOUTHEAST MISSOURI...

CITY           SKY/WX    TMP DP  RH WIND       PRES   REMARKS
CAPE GIRARDEAU CLEAR     31  20  63 N9        30.30R WCI  23
FARMINGTON     CLOUDY    28  20  71 N8        30.31R WCI  20
POPLAR BLUFF   CLEAR     33  21  61 N15       30.30R WCI  23
WEST PLAINS    CLOUDY    29  18  63 VRB7      30.30R WCI  22

$$



USA.gov is the U.S. government's official web portal to all federal, state and local government web resources and services.